Tracking 27380 objects as of 5-Jun-2023
HD Live streaming from Space Station
objects crossing your sky now

DELTA 1 DEB

Track DELTA 1 DEB now!
10-day predictions


NORAD ID: 7086
Int'l Code: 1973-086CE
Perigee: 1,499.4 km
Apogee: 1,521.9 km
Inclination: 102.0 °
Period: 116.1 minutes
Semi major axis: 7881 km
RCS: 0.0523 m2 (small)
Launch date: November 6, 1973
Source: United States (US)
Launch site: AIR FORCE WESTERN TEST RANGE (AFWTR)

Note: This is SATELLITE DEBRIS
Your satellite tracking list
Your tracking list is empty




NASA's NSSDC Master Catalog

Two Line Element Set (TLE):
1 07086U 73086CE  23156.49430434  .00000083  00000-0  94514-3 0  9990
2 07086 101.9929 120.8775 0014273 101.6398  15.7256 12.40737858243605
Source of the keplerian elements: AFSPC